IZ0QWM-13 Scandriglia IT current weather conditions

sailwx.info

Wind from 143

Air temperature 16.7° C
Dewpoint 15.0° C

Last reported at 2014-Oct-22 05:43 UTC.
Time now 2014-Oct-22 06:31 UTC

Location: N 42°10' E 012°47'.
View on Google Maps.

See reports from other nearby stations

  
Tides and Currents Weather Stations Pressure Air Temp Water Temp Dewpoint Dewpoint Depression Visibility Wind Speed Wind Dir Waves Ship Positions
date/time (UTC)wind fromknots sea level pressurealtimeterstation pressurevisibilityair tempwater tempwave heightnotes
2014-Oct-22 05:43 143 16.7
2014-Oct-22 05:34 143 16.7
2014-Oct-22 05:24 143 16.7
2014-Oct-22 05:14 143 16.7
2014-Oct-22 05:03 143 16.1
2014-Oct-22 04:54 143 16.1
2014-Oct-22 04:44 143 16.1
2014-Oct-22 04:34 143 16.1
2014-Oct-22 04:24 143 16.1
2014-Oct-22 04:14 143 16.7
2014-Oct-22 04:04 148 16.7
2014-Oct-22 03:54 148 17.2
2014-Oct-22 03:44 148 17.2
2014-Oct-22 03:34 148 17.2
2014-Oct-22 03:24 148 17.8
2014-Oct-22 03:14 170 17.8
2014-Oct-22 03:04 176 3 gusting 12 17.8
2014-Oct-22 02:53 280 17.8
2014-Oct-22 02:44 097 18.3
2014-Oct-22 02:34 097 18.3
2014-Oct-22 02:24 097 18.3
2014-Oct-22 02:14 097 18.3
2014-Oct-22 02:04 097 17.8
2014-Oct-22 01:54 097 17.8
2014-Oct-22 01:44 097 17.8
2014-Oct-22 01:34 020 17.8
2014-Oct-22 01:24 020 17.8
2014-Oct-22 01:14 020 17.8
2014-Oct-22 00:54 195 18.3
2014-Oct-22 00:44 246 18.3
2014-Oct-22 00:34 194 18.3
2014-Oct-22 00:23 159 2 gusting 13 18.3
2014-Oct-22 00:13 187 8 gusting 13 18.3
2014-Oct-22 00:04 255 2 gusting 12 18.3
2014-Oct-21 23:54 153 1 gusting 12 18.9
2014-Oct-21 23:44 200 18.9
2014-Oct-21 23:34 211 2 gusting 12 18.9
2014-Oct-21 23:24 014 18.9
2014-Oct-21 23:14 086 18.9
2014-Oct-21 23:04 008 18.9
2014-Oct-21 22:54 181 4 gusting 5 18.9
2014-Oct-21 22:44 242 1 gusting 5 18.9
2014-Oct-21 22:32 294 18.9
2014-Oct-21 22:24 143 18.9
2014-Oct-21 22:12 001 6 gusting 6 18.9
2014-Oct-21 22:04 143 18.9
2014-Oct-21 21:53 204 3 gusting 15 18.9
2014-Oct-21 21:44 219 3 gusting 15 19.4
2014-Oct-21 21:33 173 9 gusting 15 18.9
2014-Oct-21 21:23 202 18.9
2014-Oct-21 21:13 204 2 gusting 15 18.9
2014-Oct-21 21:02 150 18.9
2014-Oct-21 20:53 045 18.9
2014-Oct-21 20:33 139 18.9
2014-Oct-21 20:23 101 18.9
2014-Oct-21 20:14 156 18.9
2014-Oct-21 20:03 132 18.3
2014-Oct-21 19:53 052 18.3
2014-Oct-21 19:43 170 18.3
2014-Oct-21 19:33 186 18.3
2014-Oct-21 19:23 302 18.3
2014-Oct-21 19:12 263 18.9
2014-Oct-21 19:03 160 0 gusting 15 18.9
2014-Oct-21 18:53 165 6 gusting 15 18.9
2014-Oct-21 18:43 159 11 gusting 15 18.9
2014-Oct-21 18:33 180 6 gusting 15 18.9
2014-Oct-21 18:23 169 18.9
2014-Oct-21 18:13 212 2 gusting 12 18.9
2014-Oct-21 18:03 181 3 gusting 12 18.9
2014-Oct-21 17:53 239 18.9
2014-Oct-21 17:42 184 6 gusting 13 18.9
2014-Oct-21 17:33 172 18.9
2014-Oct-21 17:22 199 4 gusting 13 18.9
2014-Oct-21 17:13 197 5 gusting 12 18.9
2014-Oct-21 17:03 184 4 gusting 12 19.4
2014-Oct-21 16:53 211 3 gusting 12 19.4
2014-Oct-21 16:42 158 3 gusting 13 19.4
2014-Oct-21 16:33 150 6 gusting 12 19.4
2014-Oct-21 16:23 170 5 gusting 12 19.4
2014-Oct-21 16:13 229 2 gusting 9 19.4
2014-Oct-21 16:03 208 4 gusting 13 20.0
2014-Oct-21 15:53 150 4 gusting 13 20.0
2014-Oct-21 15:43 190 5 gusting 9 20.0
2014-Oct-21 15:33 191 6 gusting 8 20.0
2014-Oct-21 15:23 173 20.0
2014-Oct-21 15:13 153 4 gusting 7 20.6
2014-Oct-21 15:03 194 5 gusting 7 20.6
2014-Oct-21 14:53 163 20.6
2014-Oct-21 14:33 163 20.6
2014-Oct-21 14:23 163 21.1
2014-Oct-21 14:13 172 21.7
2014-Oct-21 14:03 176 21.7
2014-Oct-21 13:53 176 21.7
2014-Oct-21 13:33 112 21.7
2014-Oct-21 13:23 165 21.7
2014-Oct-21 13:11 176 22.2
2014-Oct-21 13:03 236 1 gusting 6 22.2
2014-Oct-21 12:53 266 21.7
2014-Oct-21 12:43 136 21.7
2014-Oct-21 12:33 283 21.7
2014-Oct-21 12:23 188 21.1
2014-Oct-21 12:13 173 21.1
2014-Oct-21 12:03 202 20.6
2014-Oct-21 11:53 202 20.6
2014-Oct-21 11:43 359 20.6
2014-Oct-21 11:33 359 20.6
2014-Oct-21 11:23 187 20.0
2014-Oct-21 11:13 080 20.0
2014-Oct-21 11:03 080 20.0
2014-Oct-21 10:53 080 20.0
2014-Oct-21 10:43 080 19.4
2014-Oct-21 10:31 080 19.4
2014-Oct-21 10:23 080 19.4
2014-Oct-21 10:21 080 19.4
2014-Oct-21 10:11 080 19.4
2014-Oct-21 10:03 080 19.4
2014-Oct-21 10:01 080 19.4
2014-Oct-21 09:51 080 19.4
2014-Oct-21 09:41 080 19.4
2014-Oct-21 09:33 080 18.9
2014-Oct-21 09:31 080 18.9
2014-Oct-21 09:21 080 19.4
2014-Oct-21 09:13 080 18.9
2014-Oct-21 09:11 080 18.9
2014-Oct-21 09:03 080 18.3
2014-Oct-21 09:01 080 18.3
2014-Oct-21 08:51 080 17.8
2014-Oct-21 08:43 080 17.2
2014-Oct-21 08:41 080 17.2
2014-Oct-21 08:33 080 17.2
2014-Oct-21 08:31 080 17.2
2014-Oct-21 08:23 080 16.7
2014-Oct-21 08:20 080 16.7
2014-Oct-21 08:13 080 16.1
2014-Oct-21 08:10 080 16.1
2014-Oct-21 08:03 080 16.1
2014-Oct-21 08:00 080 15.6
2014-Oct-21 07:53 080 15.6
2014-Oct-21 07:50 080 15.6
2014-Oct-21 07:40 080 15.0
2014-Oct-21 07:33 056 15.0
2014-Oct-21 07:30 056 15.0
2014-Oct-21 07:23 056 15.0
2014-Oct-21 07:20 056 14.4
2014-Oct-21 07:13 056 14.4
2014-Oct-21 07:10 056 14.4
2014-Oct-21 07:03 056 14.4
2014-Oct-21 07:00 056 14.4
2014-Oct-21 06:53 056 14.4
2014-Oct-21 06:50 056 13.9
2014-Oct-21 06:43 056 13.9
2014-Oct-21 06:40 056 13.9
2014-Oct-21 06:33 056 13.9
2014-Oct-21 06:30 056 13.9
2014-Oct-21 06:20 056 13.3
2014-Oct-21 06:13 056 13.3
2014-Oct-21 06:10 056 13.3
2014-Oct-21 06:00 056 13.3
2014-Oct-21 05:53 073 13.3
2014-Oct-21 05:50 073 13.3
2014-Oct-21 05:43 073 13.3
2014-Oct-21 05:40 073 13.3
2014-Oct-21 05:33 073 13.3
2014-Oct-21 05:23 073 13.3
2014-Oct-21 05:20 073 13.3
2014-Oct-21 05:13 073 13.3
2014-Oct-21 05:10 073 13.3
2014-Oct-21 05:03 073 13.3
2014-Oct-21 05:00 073 13.3
2014-Oct-21 04:53 058 13.3
2014-Oct-21 04:43 058 13.3
2014-Oct-21 04:33 058 13.3
2014-Oct-21 04:23 058 13.3
2014-Oct-21 04:13 058 13.3
2014-Oct-21 04:03 058 13.3
2014-Oct-21 03:53 058 13.9
2014-Oct-21 03:43 058 13.9
2014-Oct-21 03:33 058 13.9
2014-Oct-21 03:23 089 13.9
2014-Oct-21 03:12 090 14.4
2014-Oct-21 03:03 090 14.4
2014-Oct-21 02:53 090 13.9
2014-Oct-21 02:43 090 13.9
2014-Oct-21 02:33 076 13.9
2014-Oct-21 02:23 079 13.9
2014-Oct-21 02:12 052 14.4
2014-Oct-21 02:03 052 14.4
2014-Oct-21 01:53 052 14.4
2014-Oct-21 01:43 052 14.4
2014-Oct-21 01:32 052 14.4
2014-Oct-21 01:23 052 14.4
2014-Oct-21 01:13 052 14.4
2014-Oct-21 01:03 052 14.4
2014-Oct-21 00:53 052 13.9
2014-Oct-21 00:43 052 14.4
2014-Oct-21 00:33 052 14.4
2014-Oct-21 00:23 052 13.9
2014-Oct-21 00:13 052 13.9
2014-Oct-21 00:01 052 13.9
2014-Oct-20 23:53 052 13.9
2014-Oct-20 23:41 052 13.9
2014-Oct-20 23:33 052 13.9
2014-Oct-20 23:23 052 13.9
2014-Oct-20 23:13 034 13.9
2014-Oct-20 23:03 034 14.4
2014-Oct-20 22:53 034 13.9
2014-Oct-20 22:41 034 13.9
2014-Oct-20 22:33 034 13.9
2014-Oct-20 22:21 034 14.4
2014-Oct-20 22:13 034 14.4
2014-Oct-20 22:03 034 14.4
2014-Oct-20 21:53 034 15.0
2014-Oct-20 21:43 034 15.0
2014-Oct-20 21:33 084 14.4
2014-Oct-20 21:23 084 14.4
2014-Oct-20 21:13 084 15.0
2014-Oct-20 21:03 084 15.6
2014-Oct-20 20:53 084 15.0
2014-Oct-20 20:43 084 15.0
2014-Oct-20 20:33 084 15.0
2014-Oct-20 20:21 084 15.6
2014-Oct-20 20:13 084 15.6
2014-Oct-20 20:03 084 15.6
2014-Oct-20 20:01 084 15.6
2014-Oct-20 19:53 084 15.6
2014-Oct-20 19:51 084 15.6
2014-Oct-20 19:43 084 16.1
2014-Oct-20 19:41 084 16.1
2014-Oct-20 19:33 084 15.6
2014-Oct-20 19:31 084 16.1
2014-Oct-20 19:23 084 16.1
2014-Oct-20 19:21 084 16.1
2014-Oct-20 19:13 084 16.1
2014-Oct-20 19:11 084 16.1
2014-Oct-20 19:03 084 16.1
2014-Oct-20 19:01 084 16.1
2014-Oct-20 18:53 084 16.1
2014-Oct-20 18:51 084 16.1
2014-Oct-20 18:43 059 16.1
2014-Oct-20 18:40 082 16.7
2014-Oct-20 18:33 060 16.7
2014-Oct-20 18:30 060 16.7
2014-Oct-20 18:23 073 16.7
2014-Oct-20 18:20 073 16.7
2014-Oct-20 18:10 073 17.2
2014-Oct-20 18:03 073 17.2
2014-Oct-20 18:00 073 17.2
2014-Oct-20 17:53 073 17.2
2014-Oct-20 17:50 073 17.8
2014-Oct-20 17:43 073 17.8
2014-Oct-20 17:40 073 17.8
2014-Oct-20 17:33 073 17.8
2014-Oct-20 17:30 073 17.8
2014-Oct-20 17:20 051 18.3
2014-Oct-20 17:13 257 18.3
2014-Oct-20 17:10 257 18.3
2014-Oct-20 17:00 257 18.9
2014-Oct-20 16:53 257 19.4
2014-Oct-20 16:50 257 19.4
2014-Oct-20 16:40 257 19.4
2014-Oct-20 16:33 257 20.0
2014-Oct-20 16:30 257 20.0
2014-Oct-20 16:23 257 20.0
2014-Oct-20 16:20 257 20.0
2014-Oct-20 16:10 257 20.6
2014-Oct-20 16:03 257 21.1
2014-Oct-20 16:00 257 21.1
2014-Oct-20 15:50 257 22.2
2014-Oct-20 15:43 257 22.2
2014-Oct-20 15:40 257 22.2
2014-Oct-20 15:33 257 22.2
2014-Oct-20 15:30 257 22.8
2014-Oct-20 15:23 257 22.8
2014-Oct-20 15:20 257 22.8
2014-Oct-20 15:13 257 22.8
2014-Oct-20 15:10 257 22.8
2014-Oct-20 15:03 257 23.3
2014-Oct-20 15:00 257 23.3
2014-Oct-20 14:50 257 23.9
2014-Oct-20 14:43 257 23.9
2014-Oct-20 14:40 257 23.9
2014-Oct-20 14:33 257 23.3
2014-Oct-20 14:30 257 23.3
2014-Oct-20 14:23 238 23.3
2014-Oct-20 14:20 238 23.3
2014-Oct-20 14:13 238 23.3
2014-Oct-20 14:10 229 23.3
2014-Oct-20 14:03 229 23.3
2014-Oct-20 14:00 240 23.3
2014-Oct-20 13:53 250 23.3
2014-Oct-20 13:50 167 22.8
2014-Oct-20 13:43 269 22.8
2014-Oct-20 13:40 269 22.8
2014-Oct-20 13:33 323 3 gusting 5 22.8
2014-Oct-20 13:30 267 2 gusting 6 23.3
2014-Oct-20 13:23 281 2 gusting 5 23.3
2014-Oct-20 13:20 259 23.3
2014-Oct-20 13:13 183 23.3
2014-Oct-20 13:10 183 23.3
2014-Oct-20 13:03 253 23.3
2014-Oct-20 13:00 217 23.3
2014-Oct-20 12:53 103 23.3
2014-Oct-20 12:50 197 4 gusting 6 23.3
2014-Oct-20 12:43 322 22.8
2014-Oct-20 12:40 322 22.8
2014-Oct-20 12:33 322 22.8
2014-Oct-20 12:30 322 22.2
2014-Oct-20 12:20 233 22.2
2014-Oct-20 12:13 250 22.2
2014-Oct-20 12:10 250 22.2
2014-Oct-20 12:03 249 21.7
2014-Oct-20 12:00 226 21.7
2014-Oct-20 11:52 290 21.7
2014-Oct-20 11:49 359 21.7
2014-Oct-20 11:42 359 21.7
2014-Oct-20 11:29 207 21.7
2014-Oct-20 11:22 207 21.7
2014-Oct-20 11:19 269 4 gusting 6 21.7
2014-Oct-20 11:12 277 21.7
2014-Oct-20 11:09 269 2 gusting 6 21.7
2014-Oct-20 11:02 274 21.1
2014-Oct-20 10:59 278 21.1
2014-Oct-20 10:49 277 21.1
2014-Oct-20 10:42 288 21.1
2014-Oct-20 10:39 097 21.1
2014-Oct-20 10:32 097 21.1
2014-Oct-20 10:29 097 21.1
2014-Oct-20 10:22 097 21.1
2014-Oct-20 10:19 097 21.1
2014-Oct-20 10:12 097 20.6
2014-Oct-20 10:09 097 20.6
2014-Oct-20 09:59 097 20.6
2014-Oct-20 09:52 097 20.6
2014-Oct-20 09:49 097 20.6
2014-Oct-20 09:42 097 20.0
2014-Oct-20 09:39 097 20.0
2014-Oct-20 09:29 097 20.0
2014-Oct-20 09:22 097 20.0
2014-Oct-20 09:19 097 20.0
2014-Oct-20 09:12 097 19.4
2014-Oct-20 09:09 097 19.4
2014-Oct-20 09:02 097 19.4
2014-Oct-20 08:59 097 18.9
2014-Oct-20 08:52 097 18.9
2014-Oct-20 08:49 097 18.9
2014-Oct-20 08:39 097 19.4
2014-Oct-20 08:32 097 19.4
2014-Oct-20 08:29 097 19.4
2014-Oct-20 08:19 097 18.9
2014-Oct-20 08:09 097 18.9
2014-Oct-20 08:02 097 18.3
2014-Oct-20 07:59 097 18.3
2014-Oct-20 07:52 097 18.3
2014-Oct-20 07:49 097 17.8
2014-Oct-20 07:42 097 17.2
2014-Oct-20 07:39 097 17.2
2014-Oct-20 07:32 097 16.7
2014-Oct-20 07:29 097 16.7
2014-Oct-20 07:22 097 16.1
2014-Oct-20 07:19 097 16.1
2014-Oct-20 07:12 097 15.6
2014-Oct-20 07:09 097 15.6
2014-Oct-20 07:02 097 15.0
2014-Oct-20 06:59 097 15.0
2014-Oct-20 06:52 097 14.4
2014-Oct-20 06:49 097 14.4
2014-Oct-20 06:42 097 14.4
2014-Oct-20 06:39 097 14.4
2014-Oct-20 06:32 097 14.4
2014-Oct-20 06:29 097 14.4
2014-Oct-20 06:22 097 13.9
2014-Oct-20 06:19 097 13.9
2014-Oct-20 06:12 059 13.9
2014-Oct-20 06:09 059 13.9
2014-Oct-20 06:02 059 13.9